This is the latest recevied weather packets stored in our database for station/object DL3TR-13. If no packets are shown the sender has not sent any weather packets the latest 1 day(s).
| Time | Temp. | Humidity | Pressure | Rain* | Wind** | Luminosity | Snow |
|---|---|---|---|---|---|---|---|
| 1777993990 | 16.11° C | 70% | 1005.8 hPa | 0 mm | 1.34 m/s, 243° | 90 W/m² | - |
| 1777993390 | 17.22° C | 64% | 1005.9 hPa | 0 mm | 0.89 m/s, 229° | 135 W/m² | - |
| 1777992789 | 17.22° C | 63% | 1005.6 hPa | 0 mm | 2.24 m/s, 298° | 225 W/m² | - |
| 1777992190 | 17.22° C | 63% | 1005.6 hPa | 0 mm | 1.79 m/s, 256° | 225 W/m² | - |
| 1777991590 | 17.78° C | 62% | 1005.6 hPa | 0 mm | 1.34 m/s, 269° | 287 W/m² | - |
| 1777990990 | 17.78° C | 63% | 1005.6 hPa | 0 mm | 0.89 m/s, 280° | 294 W/m² | - |
| 1777990390 | 17.78° C | 57% | 1005.7 hPa | 0 mm | 0.45 m/s, 355° | 417 W/m² | - |
| 1777989790 | 17.22° C | 56% | 1005.8 hPa | 0 mm | 0.89 m/s, 355° | 308 W/m² | - |
| 1777989189 | 17.78° C | 56% | 1005.8 hPa | 0 mm | 0.89 m/s, 5° | 350 W/m² | - |
| 1777988590 | 17.78° C | 55% | 1005.8 hPa | 0 mm | 0.45 m/s, 300° | 550 W/m² | - |
| 1777987990 | 16.67° C | 60% | 1005.9 hPa | 0 mm | 0.89 m/s, 282° | 566 W/m² | - |
| 1777987390 | 16.67° C | 64% | 1006 hPa | 0 mm | 0.45 m/s, 293° | 352 W/m² | - |
| 1777986789 | 16.67° C | 69% | 1006 hPa | 0 mm | 1.34 m/s, 279° | 450 W/m² | - |
| 1777986190 | 16.67° C | 71% | 1006.1 hPa | 0 mm | 0.89 m/s, 148° | 610 W/m² | - |
| 1777985590 | 16.67° C | 71% | 1006.2 hPa | 0 mm | 0.45 m/s, 249° | 383 W/m² | - |
| 1777984990 | 16.11° C | 72% | 1006.3 hPa | 0 mm | 0.89 m/s, 198° | 425 W/m² | - |
| 1777984390 | 15.56° C | 76% | 1006.4 hPa | 0 mm | 1.34 m/s, 244° | 371 W/m² | - |
| 1777983790 | 15° C | 73% | 1006.3 hPa | 0 mm | 0.89 m/s, 248° | 295 W/m² | - |
| 1777983190 | 15.56° C | 74% | 1006.2 hPa | 0 mm | 0.89 m/s, 248° | 269 W/m² | - |
| 1777982589 | 15° C | 76% | 1006.1 hPa | 0 mm | 0.89 m/s, 240° | 364 W/m² | - |
| 1777981989 | 15° C | 76% | 1006.3 hPa | 0 mm | 0.89 m/s, 286° | 322 W/m² | - |
| 1777981390 | 14.44° C | 75% | 1006.4 hPa | 0 mm | 0.45 m/s, 286° | 436 W/m² | - |
| 1777980789 | 13.89° C | 80% | 1006.4 hPa | 0 mm | 0 m/s | 241 W/m² | - |
| 1777980190 | 13.89° C | 82% | 1006.6 hPa | 0 mm | 0 m/s | 195 W/m² | - |
| 1777979589 | 13.89° C | 80% | 1006.6 hPa | 0 mm | 1.34 m/s, 238° | 206 W/m² | - |
* Rain latest hour (hover to see other rain measurements)
** Current wind speed in m/s (hover to see current wind gust speed)